sat.trackr.live / text

‹ back to catalog

STARLINK-32228

NORAD 60445 · 2024-144W

PAYLOAD ACTIVE UNKNOWN

§ Identity

Operator
Country
US
Launch date
2024-08-12
Launch site
AFETR
Launch vehicle
Mass (kg)
RCS (m²)

Purposes: comms

External: N2YO · Heavens-Above · Gunter

§ Orbital elements

Epoch: 2026-05-25T05:17:18.887136Z

Period
93.85 min
Inclination
53.1590°
Eccentricity
0.0001075
Mean motion
15.34393953 rev/d
Perigee alt
462.0 km
Apogee alt
463.5 km
Semi-major
6,840.9 km
B*
5.6332e-5
RAAN
220.4258°
Arg perigee
83.0660°
Mean anomaly
277.0465°
Rev number
10,108

§ Raw data

STARLINK-322281 60445U 24144W   26145.22035749  .00001527  00000+0  56332-4 0  99912 60445  53.1590 220.4258 0001075  83.0660 277.0465 15.34393953101089

JSON: /api/v1/satellites/60445 · /tle

For live sub-satellite position, see the globe view (requires WebGL).

§ Visibility from observer

Set your observer location to see the next 7 days of passes ≥ 10°. The values pass through the URL so the page stays shareable.

No JS? Fill the form by hand. The geolocation button needs JavaScript.